SCP
0 0 0 0 0 0 0 0 0 0 0 0 0 0 0 0 0 0 0 0 0 0 0 0 0 0 0 0 0 0 0 0 0 0 0 0 0 0 0 0 0 0 0 0
0 0 0 0 -0 0 0 0 0 0 0 0 0 0 0 0 0 0 0 0 0 0 0 0 0 0 0 0 0 0 0 0 0 0 0 0 0 0 0 0 0 0 0 0
0 0 0 -0 -0 -0 0 0 0 0 0 0 0 0 0 0 0 0 0 0 0 0 0 0 0 0 0 0 0 0 0 0 0 0 0 0 0 0 0 0 0 0 0 0
0 0 0 -0 -0 0 0 0 0 0 0 0 0 0 0 0 0 0 0 0 0 0 0 0 0 0 0 0 0 0 0 0 0 0 0 0 0 0 0 0 0 0 0 0
0 0 0 0 0 0 0 0 0 0 0 0 0 0 0 0 0 0 0 0 0 0 0 0 0 0 0 0 0 0 0 0 0 0 0 0 0 0 0 0 0 0 0 0
0 0 0 0 0 0 0 0 0 0 0 0 0 0 0 0 0 0 0 0 0 0 0 0 0 0 0 0 0 0 0 0 0 0 0 0 0 0 0 0 0 0 0 0
0 0 0 0 0 0 0 0 0 0 0 0 0 0 0 0 0 0 0 0 0 0 0 0 0 0 0 0 0 0 0 0 0 0 0 0 0 0 0 0 0 0 0 0
0 0 0 0 0 0 0 0 0 0 0 0 0 0 0 0 0 0 0 0 0 0 0 0 0 0 0 0 0 0 0 0 1 1 0 0 0 0 0 0 0 0 0 0
0 0 0 0 0 0 0 0 0 0 0 0 0 0 0 0 0 0 0 0 0 0 0 0 0 0 0 0 0 0 0 1 1 1 1 0 0 0 0 0 0 0 0 0
0 0 0 0 0 0 0 0 0 0 0 0 0 0 0 0 0 0 0 0 0 0 0 0 0 0 0 0 0 0 1 1 1 1 1 0 0 0 0 0 0 0 0 0
0 0 0 0 0 0 0 0 0 0 0 0 0 0 0 0 0 0 0 0 0 0 0 0 0 0 0 0 0 1 1 1 1 1 1 1 0 0 0 0 0 0 0 0
0 0 0 0 0 0 0 0 0 0 0 0 0 0 0 0 0 0 0 0 0 0 0 0 0 0 0 0 0 1 1 1 1 1 1 1 1 1 0 0 0 0 0 0
0 0 0 0 0 0 0 0 0 0 0 0 0 0 0 0 0 0 0 0 0 0 0 0 0 0 0 0 0 1 1 1 1 0 1 1 1 1 1 1 1 1 1 1
0 0 0 0 0 0 0 0 0 0 0 0 0 0 0 0 0 0 0 0 0 0 0 0 0 0 0 0 0 1 1 1 1 0 0 0 1 1 1 1 1 1 1 1
0 0 0 0 0 0 0 0 0 0 0 0 0 0 0 0 0 0 0 0 0 0 0 0 0 0 0 0 0 0 0 0 0 0 0 0 0 1 1 1 1 1 1 1
0 0 0 0 0 0 0 0 0 0 0 0 0 0 0 0 0 0 0 0 0 0 0 0 0 0 0 0 0 0 0 0 0 0 0 0 0 0 1 1 1 1 1 1
0 0 0 0 0 0 0 0 0 0 0 0 0 0 0 0 0 0 0 0 0 0 0 0 0 0 0 0 0 0 0 0 0 0 0 0 0 0 0 1 1 1 1 1
0 0 0 0 0 0 0 0 0 0 0 0 0 0 0 0 0 0 0 0 0 0 0 0 0 0 0 0 0 0 0 0 0 0 0 0 0 0 0 1 1 1 1 1
0 0 0 0 0 0 0 0 0 0 0 0 0 0 0 0 0 0 0 0 0 0 0 0 0 0 0 0 0 0 0 0 0 0 0 0 0 0 0 1 1 1 1 1
0 0 0 0 0 0 0 0 0 0 0 0 0 0 0 0 0 0 0 0 0 1 1 0 0 0 0 0 0 0 0 0 0 0 0 0 0 0 0 1 1 1 1 1
0 0 0 0 0 0 0 0 0 0 0 0 0 0 0 0 0 0 1 1 1 1 0 0 0 0 0 0 0 0 0 0 0 0 0 0 0 0 0 1 1 1 1 1
0 0 0 0 0 0 0 0 0 0 0 0 0 0 0 0 0 1 1 0 0 0 0 0 0 0 0 0 0 0 0 0 0 0 0 0 0 0 0 1 1 1 1 1
0 0 0 0 0 0 0 0 0 0 0 0 0 0 0 0 0 0 0 0 0 0 0 0 0 0 0 0 0 0 0 0 0 0 0 0 0 0 0 0 1 1 1 1
0 0 0 0 0 0 0 0 0 0 0 0 0 0 0 0 0 0 0 0 0 0 0 0 0 0 0 0 0 0 0 0 0 0 0 0 0 0 0 0 0 1 1 1
0 0 0 0 0 0 0 0 0 0 0 0 0 0 0 0 0 0 0 0 0 0 0 0 0 0 0 0 0 0 0 0 0 0 0 0 0 0 0 0 0 0 0 0
0 0 0 0 0 0 0 0 0 0 0 0 0 0 0 0 0 0 0 0 0 0 0 0 0 0 0 0 0 0 0 0 0 0 0 0 0 0 0 0 0 0 0 0
Wind_Speed
8 10 10 8 8 6 5 7 8 4 2 5 7 6 4 6 7 7 7 7 7 7 6 6 6 6 7 6 6 6 6 5 4 3 3 2 2 2 1 1 0 1 2 1
9 11 7 5 6 7 8 9 8 5 3 5 5 5 3 5 7 7 7 6 6 7 7 6 6 7 7 8 7 7 6 5 5 3 2 2 1 1 1 1 0 2 2 2
11 3 4 7 8 9 10 9 7 5 4 6 6 7 6 6 6 7 7 6 6 7 7 6 6 7 7 8 8 6 6 5 4 3 3 2 2 3 2 2 1 1 2 2
8 5 6 8 9 10 9 7 7 6 8 6 7 6 5 6 6 7 7 8 7 7 6 7 7 6 6 7 7 6 6 5 4 4 3 3 2 2 1 1 1 1 1 2
7 7 8 9 8 9 6 4 7 8 9 8 8 8 4 7 6 6 6 7 7 7 6 6 6 7 6 6 6 6 6 5 4 4 3 3 3 2 1 1 1 2 1 1
7 4 6 6 5 6 4 5 6 9 9 10 7 8 4 4 4 5 5 5 6 6 6 6 6 5 5 5 5 6 6 5 4 4 3 3 3 2 2 2 1 2 1 1
9 8 7 6 7 8 9 9 7 9 9 7 4 7 2 1 2 3 4 5 5 5 5 6 6 6 5 5 5 5 5 6 5 5 4 3 3 3 3 3 2 2 2 1
9 9 9 7 9 7 10 12 8 7 6 4 6 5 2 3 2 1 2 3 5 6 6 6 6 5 5 5 5 4 4 4 4 4 3 3 3 3 2 2 2 2 2 1
5 5 6 5 6 8 9 10 7 9 8 7 4 3 4 4 4 3 3 4 5 6 6 6 6 6 5 5 4 4 4 4 4 3 3 3 3 3 2 3 3 2 1 1
4 4 5 5 7 6 7 6 7 9 7 8 5 6 3 4 4 4 4 3 4 6 6 6 6 6 5 5 4 3 3 4 3 3 3 2 3 3 3 3 2 2 1 1
6 6 5 7 7 7 8 7 7 7 8 8 6 1 4 2 2 2 3 3 4 6 6 6 5 5 5 5 4 4 3 3 2 2 2 2 2 2 3 2 2 2 2 1
6 6 5 5 3 3 5 6 8 8 7 7 8 0 6 3 2 2 2 3 4 5 6 6 6 5 5 4 4 4 3 2 2 2 2 1 1 1 2 2 2 1 1 1
5 5 7 8 8 7 6 6 7 7 6 7 8 2 6 3 2 2 2 4 5 6 6 6 6 5 4 4 3 3 2 2 1 1 2 1 1 1 1 1 1 1 1 2
5 6 8 7 3 4 7 7 8 9 8 7 7 3 3 2 1 2 3 4 5 6 6 6 5 4 4 3 3 3 2 2 1 1 1 1 1 1 1 1 1 1 2 2
5 7 7 6 5 5 7 7 8 9 9 9 5 4 2 1 1 2 3 5 5 6 6 5 4 4 3 3 3 2 2 1 1 1 1 1 1 1 1 1 1 1 2 2
3 5 6 6 6 6 7 7 7 8 8 8 6 5 0 0 2 3 4 5 5 5 5 5 4 4 3 3 2 2 1 1 0 0 1 1 1 1 1 1 1 2 2 2
5 6 7 7 5 7 8 6 7 7 5 6 7 3 2 2 3 3 4 4 4 4 4 4 4 3 3 2 1 1 1 1 0 0 0 0 1 1 1 2 2 2 2 2
5 6 6 6 6 10 1 1 3 5 4 4 3 2 3 2 3 3 2 3 4 3 3 3 3 3 3 2 1 1 1 1 0 0 1 1 1 1 1 1 1 1 1 1
5 6 6 6 8 6 4 2 2 5 4 2 2 2 2 3 4 4 2 2 2 3 2 2 2 3 2 2 2 1 1 1 0 0 1 1 2 1 2 1 1 1 1 1
5 7 7 7 8 6 1 2 1 5 5 2 2 3 3 5 5 4 4 2 3 3 3 2 2 2 2 1 1 1 1 1 1 1 1 1 2 1 1 1 1 1 1 1
7 7 9 9 8 3 3 2 3 6 1 2 1 2 3 3 2 4 4 3 3 3 3 3 3 2 1 1 1 1 1 1 1 1 1 1 2 1 1 1 1 1 1 1
6 6 7 7 8 3 3 2 2 3 3 1 0 1 2 2 3 4 4 4 3 4 3 3 2 1 1 1 2 2 1 1 1 1 1 1 2 2 1 1 1 2 2 2
4 3 3 3 1 5 2 1 2 2 1 1 1 1 3 3 3 3 3 3 2 3 3 2 2 1 1 1 2 2 1 1 2 2 2 2 2 2 1 2 2 2 2 2
3 1 3 3 2 2 1 1 1 1 1 1 0 2 3 3 2 2 2 2 2 1 2 2 2 1 0 1 2 2 1 1 2 2 2 2 2 1 1 2 2 2 2 2
2 3 4 4 2 2 2 1 1 1 1 0 1 1 2 2 2 2 2 2 1 2 2 2 2 1 1 1 2 2 1 2 2 2 2 2 2 1 1 1 2 3 2 2
4 4 5 3 1 2 0 1 1 1 1 1 1 1 2 2 1 1 1 2 2 2 2 2 3 2 2 2 2 2 2 3 3 3 3 2 2 1 2 2 1 0 2 1
Wind_Direction
196 220 219 217 230 262 249 243 237 219 185 238 241 243 203 189 195 193 186 182 177 169 158 162 171 172 168 169 172 177 178 166 185 193 206 203 200 206 200 214 318 278 281 276
201 220 224 230 225 236 235 236 234 206 193 245 238 242 216 196 203 198 193 190 184 170 166 169 172 175 178 177 178 179 179 174 190 182 210 226 247 231 209 246 239 276 276 275
222 195 198 217 212 223 231 242 241 228 201 220 231 222 201 187 200 198 200 197 191 182 174 172 174 177 180 181 184 183 181 181 190 191 203 197 201 220 204 208 204 249 268 262
226 204 201 215 217 228 230 234 246 234 231 214 228 249 181 179 190 196 200 200 194 187 183 177 176 177 183 183 179 178 179 183 186 197 211 221 228 238 244 251 222 229 244 267
209 209 216 224 225 233 244 239 237 238 242 247 222 255 182 173 199 196 197 201 195 186 182 178 176 176 179 179 177 175 176 181 185 200 203 226 241 246 243 252 246 265 235 260
229 206 236 237 225 222 210 208 218 231 236 239 233 251 228 184 206 200 186 187 188 187 183 176 168 162 164 169 173 170 169 175 184 200 207 226 246 261 270 270 264 246 236 243
213 206 204 221 208 191 210 225 219 215 220 230 194 242 233 123 179 210 191 182 178 176 171 169 170 170 166 164 163 161 164 175 185 193 207 221 237 242 242 259 250 269 268 251
210 200 192 205 227 214 217 237 248 254 247 218 183 232 147 119 127 156 173 173 172 171 164 164 163 163 159 158 162 167 171 178 182 186 198 215 233 248 248 257 274 265 279 292
219 200 166 196 223 238 215 231 259 267 263 256 210 195 174 175 193 185 170 161 161 167 164 158 152 154 153 153 157 167 169 181 190 192 197 206 226 249 262 252 247 254 267 260
251 224 179 177 201 216 257 231 228 245 250 252 223 220 200 183 190 176 164 150 147 156 157 151 147 151 151 151 151 152 164 177 187 193 209 205 217 229 246 257 263 266 276 289
243 234 188 187 214 206 199 211 239 250 265 265 252 196 83 158 147 149 145 134 148 154 155 151 151 152 151 150 149 149 154 166 174 182 192 212 218 220 229 243 252 247 261 250
221 245 223 202 177 276 239 234 232 245 242 254 271 165 92 94 95 120 126 123 131 146 151 148 148 148 149 148 142 137 145 160 166 169 176 182 206 223 232 234 247 236 231 229
192 221 222 198 186 193 216 226 237 249 255 253 257 192 112 113 120 118 129 133 133 140 141 138 137 138 136 133 133 138 150 143 141 163 175 172 211 216 238 247 235 218 212 217
223 233 249 254 252 210 212 220 228 241 246 250 253 247 179 170 163 138 142 151 149 148 146 144 137 131 129 126 125 131 128 121 126 159 184 189 219 226 227 239 231 204 195 197
232 230 232 253 261 247 240 234 229 238 258 268 263 249 234 210 200 165 155 158 154 152 150 146 139 134 135 131 130 120 108 105 117 157 195 211 209 219 216 223 222 209 202 192
228 241 227 232 234 234 242 245 240 244 254 255 256 259 270 154 186 174 165 163 162 157 154 149 145 146 148 144 138 119 116 111 129 201 236 247 211 212 214 209 201 191 199 198
211 222 231 227 223 235 233 242 240 233 245 251 254 258 181 189 186 180 174 170 170 167 163 160 157 158 164 164 155 153 154 110 89 317 288 276 251 215 221 214 194 193 197 192
233 234 239 230 221 238 135 41 268 242 246 261 250 217 210 196 162 148 167 176 170 167 162 162 162 160 164 165 162 173 175 156 177 292 343 341 295 246 228 217 200 200 202 203
230 235 240 238 232 230 177 177 250 247 235 253 232 196 170 150 166 158 145 153 149 149 141 151 167 159 161 163 165 183 190 194 219 334 343 310 295 264 245 233 227 210 207 204
198 229 239 236 247 242 155 112 266 247 222 144 205 202 180 189 216 145 130 135 131 129 133 147 157 153 148 149 161 188 213 228 297 318 325 316 289 267 250 255 242 227 230 220
196 211 230 236 243 240 78 111 216 237 67 79 221 210 196 203 358 94 130 133 129 128 131 144 149 140 136 146 177 209 224 298 311 310 317 303 286 264 241 228 223 228 235 237
231 222 221 233 239 221 94 172 243 8 32 14 265 188 189 118 100 121 124 120 117 122 123 129 130 118 124 167 212 225 253 305 306 294 295 295 289 282 231 211 219 221 230 227
249 289 279 266 354 64 91 62 38 17 355 328 279 170 167 152 151 136 127 124 123 120 119 124 129 124 129 189 243 256 277 284 274 276 283 282 278 277 262 228 220 219 223 244
194 261 245 227 168 122 116 56 33 5 344 330 124 151 166 167 159 155 144 137 140 150 161 164 168 161 111 310 271 272 279 262 251 260 269 265 259 259 256 259 247 245 240 242
235 215 229 227 200 182 170 33 3 3 347 6 133 151 167 171 178 175 169 175 198 207 216 226 221 212 215 255 281 281 252 237 245 254 254 251 245 244 273 278 289 280 289 304
231 237 245 246 215 242 197 20 341 304 285 262 211 173 164 173 186 211 215 220 232 235 235 238 240 241 240 238 244 248 239 231 235 238 240 248 247 234 241 252 267 332 291 45